Flag for Estonia Weather past 2 weeks in Tartu, Estonia

Now
66 °F

Scattered clouds.


Feels Like: 66 °F
Forecast: 44 / 68 °F
Wind: 5 mph from Southwest

Location: Tartu/Ulenurme

Current Time: Sep 18, 2014 at 5:49:37 PM

Latest Report: Sep 18, 2014 at 4:50 PM


Visibility: N/A

Pressure: 30.27 "Hg

Humidity: 49%

Dew point: 46 °F

Location of TartuLocation

Historic Weather in Tartu — Graph

°F

Tartu temperature yesterday

Maximum temperature yesterday: 66 °F (at 3:50 PM)
Minimum temperature yesterday: 37 °F (at 5:50 AM)
Average temperature yesterday: 51 °F

Past Weeks' High & Low Weather Summary

 TemperatureHumidityPressure
High73 °F (Sep 7, 5:50 PM)100% (Sep 10, 8:50 AM)30.45 "Hg (Sep 10, 8:50 AM)
Low36 °F (Sep 15, 5:50 AM)43% (Sep 17, 4:50 PM)29.92 "Hg (Sep 9, 9:50 PM)
Average57 °F79%30.24 "Hg
* Reported Sep 3 3:50 PM — Sep 18 3:50 PM, Tartu, Weather by CustomWeather, © 2014

Note: Actual official high and low records may vary slightly from our data, if they occured in-between our weather recording intervals... More about our weather records

Advertising

Tartu weather history for previous 24 hours

 ConditionsComfort  
Time TempWeatherWind HumidityBarometerVisibility
3:50 PM
Sep 18
66 °FPassing clouds.3 mph49%30.27 "HgN/A
2:50 PM68 °FPassing clouds.7 mph46%30.30 "HgN/A
1:50 PM66 °FPassing clouds.7 mph46%30.30 "HgN/A
12:50 PM66 °FSunny.1 mph49%30.30 "Hg10 mi
11:50 AM63 °FSunny.2 mph64%30.33 "Hg10 mi
10:50 AM61 °FCool.No wind68%30.33 "HgN/A
9:50 AM55 °FCool.No wind82%30.33 "HgN/A
8:50 AM48 °FCool.No wind87%30.33 "HgN/A
7:50 AM41 °FFog.No wind93%30.33 "Hg4 mi
6:50 AM41 °FFog.No wind87%30.30 "Hg6 mi
5:50 AM41 °FLight fog.No wind87%30.33 "Hg5 mi
4:50 AM41 °FQuite cool.No wind87%30.33 "HgN/A
3:50 AM43 °FLight fog.No wind87%30.33 "HgN/A
2:50 AM43 °FQuite cool.No wind87%30.33 "HgN/A
1:50 AM43 °FQuite cool.No wind87%30.33 "HgN/A
12:50 AM45 °FQuite cool.No wind87%30.33 "HgN/A
11:50 PM
Sep 17
46 °FCool.No wind87%30.33 "HgN/A
10:50 PM48 °FCool.No wind87%30.33 "HgN/A
9:50 PM48 °FCool.No wind87%30.33 "HgN/A
8:50 PM52 °FCool.No wind82%30.33 "HgN/A
7:50 PM55 °FCool.No wind72%30.33 "HgN/A
6:50 PM63 °FSunny.2 mph56%30.33 "Hg10 mi
5:50 PM64 °FSunny.6 mph49%30.33 "Hg10 mi
Weather by CustomWeather, © 2014

See weather overviewHow to use our weather pages